Location: Demmingen
(48.6757°N, 10.4375°E)
Time: 10:06:46
(UTC+00:00)

USA 267 - Pass Details

Date: 19 August 2024
Orbit: 1096 x 1111 km, 123.1° (Epoch: 03 September)

Event Time Altitude Azimuth Distance (km) Brightness Sun altitude
Exits shadow 19:59:01 - 173° (S) 3,230 5.3 -14.3°
Reaches altitude 10° 19:59:56 10° 178° (S) 2,951 5.1 -14.4°
Maximum altitude 20:05:15 27° 233° (SW) 1,998 4.8 -15.1°
Drops below altitude 10° 20:10:38 10° 288° (WNW) 2,972 6.6 -15.8°
Sets 20:13:36 0° 301° (WNW) 3,936 7.8 -16.2°
